DW0538 Weather Reports


Display with metric or nautical units.
time (UTC)temp
F
wind
direction
speed
MPH
gust
MPH
rain 1hr
in
rain 24hr
in
rain mn
in
humidity
%
barometer
mb
20260506131812 68 272 1.0 4.0 0.00 0.00 0.00 72 1008.9
20260506131332 67 263 0.0 7.0 0.00 0.00 0.00 73 1009.0
20260506130817 67 242 1.0 7.0 0.00 0.00 0.00 73 1009.1
20260506130328 67 257 0.0 7.0 0.00 0.00 0.00 73 1009.0
20260506125808 67 217 0.0 2.0 0.00 0.00 0.00 73 1008.8
20260506125323 67 293 0.0 0.0 0.00 0.00 0.00 73 1008.9
20260506124329 67 248 0.0 5.0 0.00 0.00 0.00 74 1008.5
20260506123310 66 232 0.0 3.0 0.00 0.00 0.00 74 1008.6
20260506122818 66 201 0.0 8.0 0.00 0.00 0.00 74 1008.6
20260506122310 66 231 0.0 8.0 0.00 0.00 0.00 74 1008.7
20260506121818 66 244 0.0 2.0 0.00 0.00 0.00 74 1008.8
20260506121313 66 246 0.0 5.0 0.00 0.00 0.00 74 1008.8
20260506120825 66 229 1.0 5.0 0.00 0.00 0.00 74 1009.0
20260506120325 66 258 0.0 2.0 0.00 0.00 0.00 75 1008.9
20260506115833 66 272 0.0 2.0 0.00 0.00 0.00 75 1009.1
20260506115313 66 217 0.0 3.0 0.00 0.00 0.00 75 1009.2
20260506114822 66 242 1.0 5.0 0.00 0.00 0.00 75 1009.2
20260506114317 66 284 0.0 5.0 0.00 0.00 0.00 76 1009.1
20260506113824 66 271 0.0 2.0 0.00 0.00 0.00 76 1009.1
20260506111308 65 222 0.0 1.0 0.00 0.00 0.00 77 1009.0
20260506110814 65 236 0.0 1.0 0.00 0.00 0.00 77 1009.0
20260506110325 65 250 0.0 6.0 0.00 0.00 0.00 77 1009.0
20260506105818 65 312 0.0 6.0 0.00 0.00 0.00 77 1008.9
20260506104816 65 238 0.0 1.0 0.00 0.00 0.00 77 1008.8
20260506104331 65 248 0.0 4.0 0.00 0.00 0.00 77 1008.7
20260506102811 65 242 0.0 8.0 0.00 0.00 0.00 77 1009.0
20260506102326 65 290 0.0 8.0 0.00 0.00 0.00 78 1008.8
20260506100310 64 283 0.0 0.0 0.00 0.00 0.00 78 1008.8
20260506095319 64 258 0.0 3.0 0.00 0.00 0.00 78 1008.6
20260506094830 65 209 0.0 2.0 0.00 0.00 0.00 78 1008.6
20260506094319 65 207 0.0 2.0 0.00 0.00 0.00 78 1008.7
20260506093824 65 222 0.0 1.0 0.00 0.00 0.00 78 1008.6
20260506093312 65 225 0.0 1.0 0.00 0.00 0.00 78 1008.6
20260506092824 65 233 0.0 2.0 0.00 0.00 0.00 78 1008.7
20260506091821 65 200 0.0 3.0 0.00 0.00 0.00 77 1008.7
20260506091316 65 265 0.0 1.0 0.00 0.00 0.00 77 1008.6
20260506090824 65 260 0.0 3.0 0.00 0.00 0.00 77 1008.8
20260506085820 65 223 0.0 0.0 0.00 0.00 0.00 77 1008.8
20260506085313 65 233 0.0 1.0 0.00 0.00 0.00 77 1008.8
20260506084819 65 247 0.0 0.0 0.00 0.00 0.00 76 1008.8
20260506084312 65 273 0.0 1.0 0.00 0.00 0.00 76 1008.8
20260506082836 65 223 0.0 0.0 0.00 0.00 0.00 76 1008.8
20260506082318 65 237 0.0 1.0 0.00 0.00 0.00 76 1008.8
20260506081322 66 213 0.0 0.0 0.00 0.00 0.00 75 1009.0
20260506080329 66 175 0.0 1.0 0.00 0.00 0.00 75 1008.8
20260506072322 67 269 0.0 5.0 0.00 0.00 0.00 73 1008.8
20260506071836 67 202 0.0 5.0 0.00 0.00 0.00 72 1008.8
20260506071323 67 230 0.0 1.0 0.00 0.00 0.00 72 1008.8
20260506070328 67 218 0.0 2.0 0.00 0.00 0.00 71 1008.9
20260506062324 67 271 0.0 3.0 0.00 0.00 0.00 69 1009.2
20260506061810 67 213 0.0 2.0 0.00 0.00 0.00 69 1009.1
20260506061327 67 258 0.0 0.0 0.00 0.00 0.00 69 1009.1
20260506060815 67 225 0.0 0.0 0.00 0.00 0.00 69 1009.1
20260506060330 67 221 0.0 0.0 0.00 0.00 0.00 69 1009.1
20260506050825 68 265 0.0 0.0 0.00 0.00 0.00 65 1009.5
20260506050328 68 176 0.0 0.0 0.00 0.00 0.00 65 1009.6
20260506044823 68 248 0.0 5.0 0.00 0.00 0.00 64 1009.5
20260506044314 68 248 0.0 5.0 0.00 0.00 0.00 64 1009.5
20260506043824 69 245 0.0 1.0 0.00 0.00 0.00 64 1009.6
20260506042820 69 232 0.0 3.0 0.00 0.00 0.00 63 1009.6
20260506042326 69 220 0.0 5.0 0.00 0.00 0.00 63 1009.5
20260506041809 69 321 0.0 5.0 0.00 0.00 0.00 63 1009.5
20260506041319 69 165 0.0 3.0 0.00 0.00 0.00 63 1009.5
20260506040824 69 265 0.0 2.0 0.00 0.00 0.00 63 1009.5
20260506040332 69 242 0.0 3.0 0.00 0.00 0.00 62 1009.5
20260506035813 69 248 0.0 3.0 0.00 0.00 0.00 62 1009.5
20260506035323 69 270 0.0 3.0 0.00 0.00 0.00 62 1009.4
20260506034823 69 256 0.0 3.0 0.00 0.00 0.00 61 1009.5
20260506033810 69 245 1.0 4.0 0.00 0.00 0.00 61 1009.5
20260506032328 70 270 0.0 5.0 0.00 0.00 0.00 61 1009.6
20260506031814 70 252 0.0 5.0 0.00 0.00 0.00 60 1009.5
20260506031319 70 242 0.0 4.0 0.00 0.00 0.00 60 1009.5
20260506030809 70 159 0.0 8.0 0.00 0.00 0.00 60 1009.4
20260506025833 71 257 0.0 3.0 0.00 0.00 0.00 59 1009.4
20260506025325 71 182 0.0 8.0 0.00 0.00 0.00 58 1009.4
20260506024833 71 227 0.0 8.0 0.00 0.00 0.00 58 1009.4
20260506024320 72 284 0.0 5.0 0.00 0.00 0.00 56 1009.4
20260506023832 72 217 0.0 5.0 0.00 0.00 0.00 56 1009.4
20260506023314 72 202 1.0 5.0 0.00 0.00 0.00 55 1009.4
20260506022316 73 264 0.0 5.0 0.00 0.00 0.00 54 1009.2
20260506021822 73 236 1.0 7.0 0.00 0.00 0.00 54 1009.2
20260506021334 73 280 1.0 9.0 0.00 0.00 0.00 53 1009.2
20260506020334 74 182 0.0 8.0 0.00 0.00 0.00 51 1009.3
20260506015808 74 234 1.0 9.0 0.00 0.00 0.00 50 1009.2
20260506015317 74 227 1.0 12.0 0.00 0.00 0.00 50 1009.1
20260506014807 74 229 3.0 12.0 0.00 0.00 0.00 49 1009.1
20260506014319 75 225 2.0 10.0 0.00 0.00 0.00 48 1009.1
20260506013330 75 188 3.0 11.0 0.00 0.00 0.00 46 1008.9
20260506012813 75 240 0.0 6.0 0.00 0.00 0.00 45 1008.9
20260506012330 76 242 0.0 12.0 0.00 0.00 0.00 45 1008.7
20260506011815 76 261 0.0 12.0 0.00 0.00 0.00 44 1008.6
20260506011320 76 288 1.0 3.0 0.00 0.00 0.00 44 1008.6
20260506010327 76 219 0.0 9.0 0.00 0.00 0.00 43 1008.6
20260506005809 76 215 0.0 9.0 0.00 0.00 0.00 43 1008.4
20260506005323 77 241 0.0 3.0 0.00 0.00 0.00 43 1008.4
20260506004314 77 226 0.0 12.0 0.00 0.00 0.00 42 1008.3
20260506003819 77 234 0.0 3.0 0.00 0.00 0.00 42 1008.3
20260506003316 77 272 0.0 14.0 0.00 0.00 0.00 41 1008.3
20260506002833 77 262 0.0 14.0 0.00 0.00 0.00 41 1008.2
20260506001830 78 241 0.0 5.0 0.00 0.00 0.00 40 1008.2
20260506001323 78 192 2.0 5.0 0.00 0.00 0.00 39 1008.1
20260506000808 78 249 0.0 6.0 0.00 0.00 0.00 38 1008.1
20260506000326 78 219 0.0 6.0 0.00 0.00 0.00 38 1008.1
20260505235818 78 219 0.0 2.0 0.00 0.00 0.00 37 1008.0
20260505235326 78 260 0.0 5.0 0.00 0.00 0.00 37 1008.0
20260505234335 79 225 0.0 6.0 0.00 0.00 0.00 36 1007.8
20260505233820 79 219 1.0 6.0 0.00 0.00 0.00 36 1007.7
20260505233313 79 228 0.0 3.0 0.00 0.00 0.00 35 1007.7
20260505232323 79 238 0.0 5.0 0.00 0.00 0.00 35 1007.8
20260505231813 80 271 1.0 10.0 0.00 0.00 0.00 34 1007.7
20260505230315 80 285 1.0 10.0 0.00 0.00 0.00 33 1007.3
20260505225819 80 213 0.0 6.0 0.00 0.00 0.00 33 1007.4
20260505225315 80 186 0.0 16.0 0.00 0.00 0.00 32 1007.3
20260505224812 81 230 1.0 16.0 0.00 0.00 0.00 32 1007.3
20260505224331 81 222 1.0 16.0 0.00 0.00 0.00 32 1007.3
20260505223809 81 295 6.0 16.0 0.00 0.00 0.00 31 1007.2
20260505223330 82 200 0.0 7.0 0.00 0.00 0.00 31 1007.1
20260505222812 81 342 1.0 12.0 0.00 0.00 0.00 31 1007.2
20260505222318 82 221 3.0 12.0 0.00 0.00 0.00 31 1007.0
20260505221826 81 317 4.0 10.0 0.00 0.00 0.00 31 1007.1
20260505221332 81 237 1.0 9.0 0.00 0.00 0.00 30 1007.0
20260505220819 81 317 1.0 10.0 0.00 0.00 0.00 32 1007.2
20260505220331 81 271 1.0 14.0 0.00 0.00 0.00 31 1007.1
20260505215824 81 238 1.0 14.0 0.00 0.00 0.00 31 1007.1
20260505215309 81 342 1.0 13.0 0.00 0.00 0.00 30 1006.9
20260505214809 82 278 3.0 13.0 0.00 0.00 0.00 30 1006.9
20260505213816 82 232 2.0 11.0 0.00 0.00 0.00 31 1006.7
20260505213309 82 213 1.0 9.0 0.00 0.00 0.00 32 1006.6
20260505212824 82 272 1.0 15.0 0.00 0.00 0.00 32 1006.6
20260505212311 82 276 3.0 15.0 0.00 0.00 0.00 31 1006.6
20260505211822 82 248 3.0 13.0 0.00 0.00 0.00 32 1006.6
20260505211330 83 321 3.0 11.0 0.00 0.00 0.00 31 1006.5
20260505210811 83 244 1.0 15.0 0.00 0.00 0.00 31 1006.5
20260505210323 83 250 6.0 15.0 0.00 0.00 0.00 31 1006.5
20260505205812 83 253 1.0 12.0 0.00 0.00 0.00 31 1006.5
20260505204819 83 284 4.0 16.0 0.00 0.00 0.00 33 1006.6
20260505203329 83 232 1.0 11.0 0.00 0.00 0.00 32 1006.6
20260505202835 83 273 3.0 15.0 0.00 0.00 0.00 32 1006.6
20260505201313 83 285 4.0 17.0 0.00 0.00 0.00 31 1006.8
20260505200823 83 248 3.0 12.0 0.00 0.00 0.00 32 1006.7
20260505200316 83 307 2.0 14.0 0.00 0.00 0.00 33 1006.8
20260505195826 83 217 2.0 19.0 0.00 0.00 0.00 33 1006.7
20260505195322 83 298 3.0 12.0 0.00 0.00 0.00 33 1007.2
20260505194832 83 222 3.0 15.0 0.00 0.00 0.00 32 1006.9
20260505194317 83 319 4.0 15.0 0.00 0.00 0.00 32 1007.0
20260505193312 83 245 1.0 12.0 0.00 0.00 0.00 35 1007.0
20260505192320 83 248 1.0 12.0 0.00 0.00 0.00 34 1007.1
20260505191316 83 241 3.0 14.0 0.00 0.00 0.00 35 1007.2
20260505190827 83 249 0.0 11.0 0.00 0.00 0.00 35 1007.2
20260505190327 83 259 2.0 14.0 0.00 0.00 0.00 33 1007.5
20260505185825 84 200 3.0 14.0 0.00 0.00 0.00 33 1007.5
20260505184808 83 324 3.0 18.0 0.00 0.00 0.00 33 1007.6
20260505182814 83 202 1.0 11.0 0.00 0.00 0.00 35 1008.0
20260505181318 83 230 2.0 15.0 0.00 0.00 0.00 38 1008.0
20260505180812 83 272 5.0 15.0 0.00 0.00 0.00 38 1008.1
20260505180322 83 213 1.0 11.0 0.00 0.00 0.00 38 1008.1
20260505175828 82 244 2.0 11.0 0.00 0.00 0.00 39 1008.0
20260505174815 82 257 4.0 13.0 0.00 0.00 0.00 38 1008.2
20260505174326 82 350 0.0 10.0 0.00 0.00 0.00 39 1008.2
20260505173313 82 280 1.0 10.0 0.00 0.00 0.00 42 1008.4
20260505172820 81 338 0.0 11.0 0.00 0.00 0.00 42 1008.4
20260505171810 81 238 0.0 6.0 0.00 0.00 0.00 43 1008.6
20260505171324 81 229 1.0 6.0 0.00 0.00 0.00 42 1008.7
20260505170813 80 302 1.0 7.0 0.00 0.00 0.00 44 1008.8
20260505170329 80 206 1.0 7.0 0.00 0.00 0.00 44 1008.8
20260505165810 80 309 0.0 8.0 0.00 0.00 0.00 45 1008.8
20260505165323 80 326 0.0 8.0 0.00 0.00 0.00 45 1008.7
20260505164808 79 231 0.0 0.0 0.00 0.00 0.00 44 1008.9
20260505164330 79 227 3.0 8.0 0.00 0.00 0.00 44 1008.9
20260505163817 79 227 0.0 4.0 0.00 0.00 0.00 46 1008.9
20260505163328 78 167 0.0 0.0 0.00 0.00 0.00 47 1008.9
20260505162819 78 229 0.0 8.0 0.00 0.00 0.00 47 1009.2
20260505162308 78 218 0.0 8.0 0.00 0.00 0.00 46 1009.3
20260505161816 78 288 0.0 4.0 0.00 0.00 0.00 48 1009.3
20260505153333 74 269 0.0 3.0 0.00 0.00 0.00 54 1009.9
20260505152819 74 265 0.0 10.0 0.00 0.00 0.00 52 1010.0
20260505152311 74 288 1.0 10.0 0.00 0.00 0.00 53 1010.0
20260505151312 74 205 0.0 3.0 0.00 0.00 0.00 54 1010.2
20260505150825 73 260 0.0 2.0 0.00 0.00 0.00 54 1010.1